#timestamp,LO_Frequency,Hit,StdDev 
1584727215.0,286046998.7,P
1584727215.9,286046998.7,P
1584727235.8,286046998.6,P
1584727255.6,286046997.3,Y
1584727275.5,286046999.5,P
1584727295.3,286046997.1,P
1584727315.1,286046999.0,N
1584727335.9,286047001.1,N
1584727355.7,286046999.2,N
1584727375.5,286046996.9,N
1584727395.4,286047000.0,N
1584727415.2,286047001.9,N
1584727435.1,286047001.6,N
1584727436.0,286047001.6,N
1584727455.8,286047002.3,N
1584727475.6,286046999.8,N
1584727495.5,286047000.5,N
1584727515.3,286047000.8,N
1584727535.2,286047002.3,N
1584727555.9,286047004.1,N
1584727575.7,286047002.4,N
1584727595.6,286047002.7,N
1584727615.4,286047004.2,N
1584727635.2,286047003.5,N
1584727655.1,286047003.9,N
1584727656.0,286047003.9,N
1584727675.8,286047003.5,N
1584727695.7,286047003.9,N
1584727715.5,286047000.1,N
1584727735.3,286047002.1,N
1584727755.2,286047001.4,N
1584727775.0,286047001.3,N
1584727775.9,286047001.3,N
1584727795.8,286047003.4,N
1584727815.6,286047003.1,N
1584727835.4,286047001.6,N
1584727855.3,286047001.7,N
1584727875.1,286047004.3,N
1584727895.8,286047002.2,N
1584727915.7,286047002.2,N
1584727935.5,286047004.1,Y
1584727955.4,286046998.5,P
1584727975.2,286047001.1,N
1584727995.0,286046999.9,N
1584727995.9,286046999.9,N
1584728015.8,286047001.8,N
1584728035.6,286047003.1,N
1584728055.5,286047005.5,Y
1584728075.3,286047005.4,P
1584728095.1,286047007.0,P
1584728115.9,286047006.7,N
1584728135.7,286047007.5,Y
1584728155.6,286047000.2,P
1584728175.4,286047001.1,N
1584728195.2,286046996.5,N
1584728215.1,286046998.8,N
1584728216.0,286046998.8,N
1584728235.8,286046998.3,N
1584728255.6,286046996.9,N
1584728275.5,286046997.9,N
1584728295.3,286046997.4,N
1584728315.2,286046996.9,N
1584728335.9,286047001.1,N
1584728355.7,286046999.5,N
1584728375.6,286046999.2,N
1584728395.4,286046999.2,N
1584728415.3,286046998.5,N
1584728435.1,286046998.6,N
1584728436.0,286046998.6,N
1584728455.8,286046998.4,N
1584728475.7,286046997.7,N
1584728495.5,286046999.6,N
1584728515.3,286046998.1,N
1584728535.2,286047000.0,N
1584728555.0,286047000.7,N
1584728555.9,286047000.7,N
1584728575.8,286047002.1,N
1584728595.6,286047000.0,N
1584728615.4,286047000.2,N
1584728635.3,286046999.8,N
1584728655.1,286047002.4,N
1584728675.9,286047000.7,N
1584728695.7,286047000.4,N
1584728715.5,286046999.0,N
1584728735.4,286046999.1,N
1584728755.2,286047001.1,N
1584728775.1,286047000.3,N
1584728776.0,286047000.3,N
1584728795.8,286046998.2,N
1584728815.6,286046998.1,N
1584728835.5,286047002.4,N
1584728855.3,286047001.4,N
1584728875.2,286047004.0,Y
1584728895.9,286047002.0,P
1584728915.7,286047001.5,N
1584728935.6,286047000.2,N
1584728955.4,286047000.0,N
1584728975.2,286047001.4,N
1584728995.1,286047003.0,Y
1584728996.0,286047003.0,P
1584729015.8,286047004.3,P
1584729035.7,286047002.5,N
1584729055.5,286047002.7,N
1584729075.3,286046999.7,N
1584729095.2,286047000.6,N
1584729115.0,286046999.9,N
1584729115.9,286046999.9,N
1584729135.8,286047000.0,N
1584729155.6,286047002.6,N
1584729175.4,286046999.8,N
1584729195.3,286046999.3,N
1584729215.1,286046998.6,N
1584729235.8,286046998.1,N
1584729255.7,286047001.0,N
1584729275.5,286047000.2,N
1584729295.4,286047002.7,N
1584729315.2,286047000.4,N
1584729335.0,286046999.7,N
1584729335.9,286046999.7,N
1584729355.8,286046999.3,N
1584729375.6,286046998.8,N
1584729395.5,286047001.2,N
1584729415.3,286046998.6,N
1584729435.1,286046998.2,N
1584729455.9,286047000.2,N
1584729475.7,286047001.0,N
1584729495.5,286046999.4,N
1584729515.4,286047000.6,N
1584729535.2,286047001.7,N
1584729555.1,286047004.3,N
1584729556.0,286047004.3,N
1584729575.8,286047002.5,N
1584729595.6,286047000.1,N
1584729615.5,286047004.4,N
1584729635.3,286047003.5,N
1584729655.1,286047000.0,N
1584729675.9,286047002.8,N
1584729695.7,286047000.3,N
1584729715.6,286047001.0,N
1584729735.4,286047000.6,N
1584729755.2,286047000.0,N
1584729775.1,286046997.3,N
1584729776.0,286046997.3,N
1584729795.8,286046999.3,N
1584729815.7,286046996.9,N
1584729835.5,286046997.1,N
1584729855.3,286046998.8,N
1584729875.2,286046998.7,N
1584729895.0,286047000.2,N
1584729895.9,286047000.2,N
1584729915.8,286046999.8,N
1584729935.6,286047004.1,N
1584729955.4,286047002.7,N
1584729975.3,286047002.1,N
1584729995.1,286047004.3,N
1584730015.9,286047001.1,N
1584730035.7,286046998.3,N
1584730055.5,286047000.8,N
1584730075.4,286047000.7,N
1584730095.2,286046998.9,N
1584730115.1,286047001.0,N
1584730116.0,286047001.0,N
1584730135.8,286046998.8,N
1584730155.6,286046998.7,N
1584730175.5,286047001.2,N
1584730195.3,286046997.1,N
1584730215.2,286046996.7,N
1584730235.9,286046999.0,N
1584730255.7,286046996.7,N
1584730275.6,286046998.7,N
1584730295.4,286047000.1,N
1584730315.2,286047002.5,N
1584730335.1,286047004.3,N
1584730336.0,286047004.3,N
1584730355.8,286047000.2,N
1584730375.7,286046997.4,N
1584730395.5,286046998.5,N
1584730415.3,286047000.8,N
1584730435.2,286046998.3,N
1584730455.0,286046998.2,N
1584730455.9,286046998.2,N
1584730475.8,286047000.6,N
1584730495.6,286047000.8,N
1584730515.4,286047000.3,N
1584730535.3,286047000.2,N
1584730555.1,286047000.5,N
1584730575.8,286047002.8,N
1584730595.7,286046999.3,N
1584730615.5,286046996.6,N
1584730635.4,286046998.7,N
1584730655.2,286046998.7,N
1584730675.0,286046999.5,N
1584730675.9,286046999.5,N
1584730695.8,286047002.7,N
1584730715.6,286047000.5,N
1584730735.5,286046999.1,N
1584730755.3,286047000.0,N
1584730775.1,286047001.8,N
1584730795.9,286047004.0,N
